CW5786 Weather Reports


time (UTC)temp
C
wind
direction
speed
KPH
gust
KPH
rain 1hr
cm
rain 24hr
cm
rain mn
cm
humidity
%
barometer
mb
20260506050122 12 67 0.0 0.0 0.00 0.53 0.00 100 1017.0
20260506045122 12 66 0.0 4.8 0.00 0.53 0.00 100 1017.0
20260506044622 13 67 0.0 1.6 0.00 0.53 0.00 100 1016.8
20260506044131 13 67 1.6 6.4 0.00 0.56 0.00 100 1016.8
20260506043622 13 64 0.0 1.6 0.00 0.56 0.00 100 1016.7
20260506043131 13 64 0.0 0.0 0.00 0.56 0.00 100 1016.7
20260506042622 13 64 0.0 3.2 0.00 0.56 0.00 100 1016.6
20260506042128 13 64 0.0 0.0 0.00 0.58 0.00 100 1016.6
20260506041621 13 63 0.0 4.8 0.00 0.58 0.00 100 1016.5
20260506041122 13 61 1.6 8.0 0.00 0.58 0.00 100 1016.4
20260506040622 13 61 1.6 8.0 0.00 0.58 0.00 100 1016.4
20260506040121 13 61 0.0 3.2 0.00 0.61 0.00 100 1016.3
20260506035631 13 61 0.0 3.2 0.00 0.61 0.00 100 1016.4
20260506035122 14 59 0.0 9.7 0.00 0.61 0.00 100 1016.3
20260506034628 14 105 0.0 6.4 0.00 0.61 0.00 100 1016.2
20260506034128 14 124 0.0 6.4 0.00 0.61 0.00 100 1016.2
20260506033625 14 133 0.0 9.7 0.00 0.64 0.00 100 1016.0
20260506033125 15 74 0.0 8.0 0.00 0.64 0.00 100 1015.9
20260506032621 15 48 0.0 4.8 0.00 0.64 0.00 100 1015.8
20260506032125 15 47 0.0 3.2 0.00 0.64 0.00 100 1015.8
20260506031625 15 46 0.0 6.4 0.00 0.66 0.00 100 1015.6
20260506031122 15 42 0.0 4.8 0.00 0.66 0.00 2 1015.4
20260506030622 15 79 0.0 1.6 0.00 0.66 0.00 3 1015.4
20260506030129 15 77 1.6 3.2 0.00 0.66 0.00 3 1015.4
20260506025622 15 79 0.0 3.2 0.00 0.66 0.00 9 1015.4
20260506025122 15 79 0.0 3.2 0.00 0.66 0.00 13 1015.3
20260506024622 15 78 3.2 6.4 0.00 0.69 0.00 15 1015.3
20260506024124 15 96 0.0 3.2 0.00 0.69 0.00 19 1015.4
20260506023625 15 97 0.0 1.6 0.00 0.69 0.00 21 1015.3
20260506023122 15 98 3.2 3.2 0.00 0.69 0.00 23 1015.2
20260506022625 15 103 1.6 8.0 0.00 0.69 0.00 26 1015.1
20260506022121 15 109 6.4 9.7 0.00 0.69 0.00 29 1015.2
20260506021622 15 112 0.0 11.3 0.00 0.71 0.00 33 1015.2
20260506021130 15 125 3.2 9.7 0.00 0.71 0.00 36 1015.1
20260506020625 16 134 9.7 17.7 0.00 0.71 0.00 38 1015.0
20260506020122 16 121 11.3 14.5 0.00 0.71 0.00 41 1014.9
20260506015621 16 127 8.0 14.5 0.00 0.71 0.00 43 1014.8
20260506015122 16 117 0.0 14.5 0.00 0.74 0.00 44 1014.8
20260506014629 16 127 1.6 17.7 0.00 0.74 0.00 44 1014.8
20260506014125 16 130 1.6 19.3 0.00 0.74 0.00 43 1014.7
20260506013621 16 126 0.0 17.7 0.00 0.74 0.00 45 1014.7
20260506013122 17 130 9.7 19.3 0.00 0.74 0.00 45 1014.7
20260506012622 17 94 8.0 17.7 0.00 0.74 0.00 44 1014.5
20260506012122 17 113 0.0 20.9 0.00 0.74 0.00 44 1014.5
20260506011621 17 109 9.7 17.7 0.00 0.74 0.00 44 1014.5
20260506011125 17 114 12.9 17.7 0.00 0.74 0.00 43 1014.4
20260506010625 17 120 12.9 17.7 0.00 0.76 0.00 42 1014.5
20260506010128 16 111 3.2 17.7 0.00 0.76 0.00 44 1014.4
20260506005625 17 106 12.9 17.7 0.00 0.76 0.00 46 1014.5
20260506005122 17 118 3.2 17.7 0.00 0.76 0.00 47 1014.6
20260506004622 17 119 9.7 19.3 0.00 0.79 0.00 47 1014.6
20260506004127 17 115 0.0 17.7 0.00 0.79 0.00 47 1014.7
20260506003622 17 111 3.2 17.7 0.00 0.79 0.00 48 1014.6
20260506003122 17 114 0.0 17.7 0.00 0.81 0.00 48 1014.5
20260506002622 17 149 0.0 20.9 0.00 0.81 0.00 49 1014.5
20260506002130 17 126 19.3 22.5 0.00 0.81 0.00 49 1014.4
20260506001628 17 117 11.3 19.3 0.00 0.81 0.00 49 1014.3
20260506001122 17 148 14.5 14.5 0.00 0.84 0.00 50 1014.3
20260506000622 17 127 0.0 19.3 0.00 0.84 0.00 49 1014.3
20260506000131 17 128 11.3 17.7 0.00 0.84 0.00 49 1014.3
20260505235625 17 160 3.2 19.3 0.00 0.84 0.00 49 1014.3
20260505235122 17 167 3.2 16.1 0.00 0.84 0.00 49 1014.4
20260505234622 17 118 0.0 17.7 0.00 0.86 0.00 48 1014.3
20260505234124 17 167 3.2 20.9 0.00 0.86 0.00 48 1014.2
20260505233622 17 132 12.9 19.3 0.00 0.86 0.00 46 1014.3
20260505233123 17 126 6.4 16.1 0.00 0.86 0.00 46 1014.3
20260505232625 17 127 6.4 14.5 0.00 0.89 0.00 44 1014.3
20260505232122 17 150 14.5 17.7 0.00 0.89 0.00 45 1014.3
20260505231627 17 163 8.0 17.7 0.00 0.89 0.00 46 1014.3
20260505231121 17 140 11.3 19.3 0.00 0.89 0.00 45 1014.3
20260505230621 17 132 1.6 12.9 0.00 0.91 0.00 45 1014.3
20260505230125 17 131 6.4 19.3 0.00 0.91 0.00 45 1014.3
20260505225622 18 162 6.4 12.9 0.00 0.91 0.00 42 1014.2
20260505225124 17 188 4.8 16.1 0.00 0.94 0.00 43 1014.3
20260505224628 17 156 1.6 14.5 0.00 0.94 0.00 43 1014.4
20260505224122 18 112 0.0 14.5 0.00 0.97 0.00 40 1014.3
20260505223624 18 118 12.9 14.5 0.00 0.99 0.00 43 1014.4
20260505223123 18 111 8.0 14.5 0.00 0.99 0.00 43 1014.4
20260505222625 18 103 1.6 11.3 0.00 0.99 0.00 44 1014.5
20260505222125 18 106 6.4 14.5 0.00 0.99 0.00 47 1014.5
20260505221628 18 123 1.6 9.7 0.00 0.99 0.00 48 1014.4
20260505221122 18 129 8.0 11.3 0.00 0.99 0.00 49 1014.4
20260505220628 18 131 3.2 11.3 0.00 0.99 0.00 49 1014.5
20260505220122 18 135 0.0 8.0 0.00 0.99 0.00 47 1014.6
20260505215625 18 135 0.0 3.2 0.00 0.99 0.00 46 1014.7
20260505215124 18 139 0.0 8.0 0.00 0.99 0.00 45 1014.7
20260505214628 18 139 0.0 12.9 0.00 0.99 0.00 46 1014.7
20260505214122 18 146 9.7 11.3 0.00 0.99 0.00 46 1014.7
20260505213622 18 143 8.0 11.3 0.00 0.99 0.00 47 1014.8
20260505213130 18 174 0.0 11.3 0.00 0.99 0.00 46 1014.8
20260505212622 18 182 0.0 6.4 0.00 0.99 0.00 46 1014.9
20260505212121 18 186 0.0 9.7 0.00 0.99 0.00 44 1014.9
20260505211622 17 172 0.0 9.7 0.00 0.99 0.00 42 1014.9
20260505211121 17 173 6.4 11.3 0.00 0.99 0.00 43 1014.9
20260505210626 17 155 0.0 6.4 0.00 0.99 0.00 40 1014.9
20260505210128 17 159 0.0 9.7 0.00 0.99 0.00 39 1014.9
20260505205622 17 159 6.4 12.9 0.00 0.99 0.00 38 1014.9
20260505205130 17 167 0.0 12.9 0.00 0.99 0.00 40 1014.9
20260505204621 17 182 0.0 6.4 0.00 0.99 0.00 32 1014.9
20260505204121 17 184 4.8 12.9 0.00 0.99 0.00 36 1014.8
20260505203622 17 188 1.6 8.0 0.00 0.99 0.00 38 1015.0
20260505203125 17 192 3.2 6.4 0.00 0.99 0.00 38 1015.0
20260505202622 17 194 0.0 9.7 0.00 0.99 0.00 39 1015.0
20260505202121 17 179 0.0 9.7 0.00 0.99 0.00 42 1015.0
20260505201625 17 154 3.2 14.5 0.00 0.99 0.00 46 1015.0
20260505201125 18 161 0.0 11.3 0.00 0.99 0.00 47 1015.0
20260505200622 18 161 0.0 11.3 0.00 0.99 0.00 47 1015.0
20260505200122 18 163 0.0 8.0 0.00 0.99 0.00 47 1015.0
20260505195622 18 158 0.0 9.7 0.00 0.99 0.00 46 1015.0
20260505195128 17 164 0.0 8.0 0.00 0.99 0.00 47 1015.0
20260505194621 17 163 0.0 6.4 0.00 0.99 0.00 46 1015.0
20260505194121 17 163 6.4 11.3 0.00 0.99 0.00 45 1015.1
20260505193622 17 170 0.0 16.1 0.00 0.99 0.00 41 1015.1
20260505193128 17 191 8.0 17.7 0.00 0.99 0.00 41 1015.1
20260505192631 17 159 0.0 12.9 0.00 0.99 0.00 42 1015.2
20260505192122 17 141 6.4 9.7 0.00 0.99 0.00 41 1015.1
20260505191624 17 136 0.0 11.3 0.00 0.99 0.00 46 1015.1
20260505191124 17 143 3.2 9.7 0.00 0.99 0.00 46 1015.1
20260505190625 17 143 0.0 11.3 0.00 0.99 0.00 50 1015.2
20260505185648 17 166 0.0 8.0 0.00 0.99 0.00 50 1015.1
20260505185145 17 173 0.0 6.4 0.00 0.99 0.00 47 1015.2
20260505184643 17 173 6.4 11.3 0.00 0.99 0.00 45 1015.3
20260505184145 17 173 0.0 6.4 0.00 0.99 0.00 41 1015.3
20260505183645 16 175 3.2 6.4 0.00 0.99 0.00 37 1015.3
20260505183142 16 180 4.8 6.4 0.00 0.99 0.00 39 1015.2
20260505182645 16 181 6.4 9.7 0.00 0.99 0.00 40 1015.3
20260505182142 16 143 1.6 9.7 0.00 0.99 0.00 39 1015.2
20260505181642 16 180 0.0 6.4 0.00 0.99 0.00 37 1015.2
20260505181143 16 181 6.4 8.0 0.00 0.99 0.00 40 1015.1
20260505180642 16 220 1.6 9.7 0.00 0.99 0.00 37 1015.1
20260505180142 16 153 0.0 9.7 0.00 0.99 0.00 36 1015.2
20260505175645 16 153 0.0 8.0 0.00 0.99 0.00 34 1015.1
20260505175142 16 153 0.0 0.0 0.00 0.99 0.00 28 1015.1
20260505174648 16 153 0.0 6.4 0.00 0.99 0.00 25 1015.0
20260505174142 16 155 0.0 6.4 0.00 0.99 0.00 19 1014.9
20260505173643 16 159 0.0 8.0 0.03 0.99 0.00 13 1014.9
20260505173142 15 187 0.0 0.0 0.03 0.99 0.00 100 1014.9
20260505172648 15 188 0.0 0.0 0.03 0.99 0.00 100 1014.8
20260505172142 15 188 0.0 0.0 0.03 0.99 0.00 100 1014.9
20260505171642 15 189 0.0 4.8 0.03 0.99 0.00 100 1014.9
20260505171142 15 190 3.2 8.0 0.03 0.99 0.00 100 1015.1
20260505170645 15 202 0.0 0.0 0.03 0.99 0.00 100 1015.0
20260505170152 15 202 0.0 0.0 0.03 0.99 0.00 100 1015.1
20260505165645 15 202 0.0 4.8 0.05 0.99 0.00 100 1015.0
20260505165142 15 203 0.0 0.0 0.05 0.99 0.00 100 1015.1
20260505164642 14 203 0.0 3.2 0.05 0.99 0.00 100 1015.0
20260505164142 13 203 3.2 4.8 0.05 0.99 0.00 100 1015.0
20260505163645 13 203 0.0 4.8 0.03 0.97 0.00 100 1014.9
20260505163143 13 204 3.2 6.4 0.03 0.97 0.00 100 1015.0
20260505162643 13 204 0.0 8.0 0.03 0.97 0.00 100 1014.9
20260505162142 13 93 0.0 0.0 0.03 0.97 0.00 100 1014.8
20260505161648 13 93 0.0 0.0 0.03 0.97 0.00 100 1014.8
20260505161145 13 93 0.0 8.0 0.05 0.97 0.00 100 1014.8
20260505160645 14 92 1.6 8.0 0.05 0.97 0.00 100 1014.7
20260505160149 14 90 0.0 0.0 0.05 0.97 0.00 100 1014.7
20260505153151 13 90 0.0 0.0 0.03 0.94 0.00 100 1014.5
20260505152645 13 90 0.0 0.0 0.03 0.94 0.00 100 1014.5
20260505152142 12 90 0.0 0.0 0.05 0.94 0.00 100 1014.5
20260505151646 12 90 0.0 0.0 0.05 0.94 0.00 100 1014.5
20260505151142 12 90 0.0 0.0 0.03 0.91 0.00 100 1014.5
20260505150642 12 90 0.0 0.0 0.03 0.91 0.00 100 1014.4
20260505150142 12 90 0.0 0.0 0.03 0.91 0.00 100 1014.4
20260505140645 12 90 0.0 0.0 0.03 0.89 0.00 100 1014.1
20260505140146 12 90 0.0 0.0 0.03 0.89 0.00 100 1014.0
20260505130145 12 90 0.0 0.0 0.03 0.86 0.00 100 1013.7
20260505124642 12 90 0.0 0.0 0.03 0.86 0.00 100 1013.6
20260505124142 11 90 0.0 0.0 0.05 0.86 0.00 100 1013.6
20260505123651 11 90 0.0 0.0 0.05 0.86 0.00 100 1013.6
20260505123151 11 90 0.0 0.0 0.03 0.84 0.00 100 1013.5
20260505122652 11 90 0.0 0.0 0.03 0.84 0.00 100 1013.5
20260505122146 11 90 0.0 0.0 0.03 0.84 0.00 100 1013.6
20260505121648 11 90 0.0 0.0 0.03 0.84 0.00 100 1013.6
20260505121145 11 90 0.0 0.0 0.03 0.84 0.00 100 1013.6
20260505120642 11 90 0.0 0.0 0.03 0.84 0.00 100 1013.6
20260505120145 11 90 0.0 0.0 0.03 0.84 0.00 100 1013.5
20260505115645 11 90 0.0 0.0 0.05 0.84 0.00 100 1013.5
20260505115145 11 90 0.0 0.0 0.05 0.84 0.00 100 1013.6
20260505114645 11 90 0.0 0.0 0.05 0.84 0.00 100 1013.6
20260505114142 11 90 0.0 0.0 0.03 0.81 0.00 100 1013.6
20260505113642 11 90 0.0 0.0 0.03 0.81 0.00 100 1013.6
20260505113148 11 90 0.0 0.0 0.03 0.81 0.00 100 1013.6
20260505112642 11 90 0.0 0.0 0.03 0.81 0.00 100 1013.7
20260505112145 11 90 0.0 0.0 0.05 0.81 0.00 100 1013.8
20260505111642 11 90 0.0 0.0 0.05 0.81 0.00 100 1013.8
20260505111143 11 90 0.0 0.0 0.05 0.81 0.00 100 1013.8
20260505110642 11 90 0.0 0.0 0.05 0.81 0.00 100 1013.7
20260505110145 11 91 0.0 0.0 0.05 0.81 0.00 100 1013.8
20260505102151 11 90 0.0 0.0 0.05 0.76 0.00 100 1013.8
20260505101642 11 90 0.0 0.0 0.05 0.76 0.00 100 1013.9
20260505101145 11 90 0.0 0.0 0.05 0.76 0.00 100 1014.2
20260505100642 11 91 0.0 0.0 0.05 0.76 0.00 100 1013.9
20260505100143 11 91 0.0 0.0 0.05 0.76 0.00 100 1013.6
20260505095642 11 90 0.0 0.0 0.05 0.76 0.00 100 1013.5
20260505095148 11 90 0.0 0.0 0.05 0.74 0.00 100 1013.6
20260505094642 11 91 0.0 0.0 0.05 0.74 0.00 100 1013.7
20260505094148 11 91 0.0 0.0 0.05 0.74 0.00 100 1013.6
20260505093648 11 90 0.0 0.0 0.05 0.74 0.00 100 1013.6
20260505093142 11 90 0.0 0.0 0.05 0.74 0.00 100 1013.7
20260505092643 12 90 0.0 0.0 0.05 0.74 0.00 100 1013.7
20260505092148 12 91 0.0 0.0 0.05 0.74 0.00 100 1013.5
20260505091648 12 91 0.0 0.0 0.05 0.74 0.00 100 1013.5
20260505091142 12 90 0.0 0.0 0.05 0.74 0.00 100 1013.8
20260505090642 12 90 0.0 0.0 0.05 0.74 0.00 100 1014.2
20260505090145 12 90 0.0 0.0 0.05 0.74 0.00 100 1014.4
20260505085648 12 90 0.0 0.0 0.05 0.74 0.00 100 1014.4
20260505085143 12 90 0.0 0.0 0.03 0.71 0.00 100 1014.3
20260505084651 12 90 0.0 0.0 0.05 0.71 0.00 100 1014.3
20260505084145 12 90 0.0 0.0 0.05 0.71 0.00 100 1014.0
20260505083648 12 90 0.0 0.0 0.05 0.71 0.00 100 1014.3
20260505083142 12 90 0.0 6.4 0.05 0.71 0.00 100 1014.3
20260505082643 12 90 0.0 0.0 0.05 0.71 0.00 100 1014.3
20260505082145 12 90 0.0 0.0 0.03 0.69 0.00 100 1014.2
20260505081642 12 90 0.0 3.2 0.05 0.69 0.00 100 1014.2
20260505081142 12 90 0.0 0.0 0.05 0.69 0.00 100 1014.3
20260505080645 12 90 0.0 0.0 0.05 0.69 0.00 100 1014.3
20260505080148 12 91 0.0 0.0 0.05 0.69 0.00 100 1014.5
20260505075642 12 90 0.0 0.0 0.05 0.69 0.00 100 1014.6
20260505075148 12 91 0.0 0.0 0.08 0.69 0.00 100 1014.6
20260505074642 12 90 0.0 0.0 0.05 0.66 0.00 100 1014.6
20260505074149 12 90 0.0 0.0 0.05 0.66 0.00 100 1014.5
20260505073642 12 90 0.0 0.0 0.05 0.66 0.00 100 1014.3
20260505073142 12 90 0.0 0.0 0.05 0.66 0.00 100 1014.5
20260505072642 12 90 0.0 0.0 0.08 0.66 0.00 100 1014.4
20260505072146 12 91 0.0 0.0 0.08 0.66 0.00 100 1014.5
20260505071645 12 91 0.0 0.0 0.05 0.64 0.00 100 1014.4
20260505071145 12 91 0.0 0.0 0.05 0.64 0.00 100 1014.2
20260505070649 12 91 0.0 0.0 0.08 0.64 0.00 100 1014.2
20260505070142 12 90 0.0 0.0 0.08 0.64 0.00 100 1014.3
20260505065642 12 90 0.0 6.4 0.08 0.64 0.00 100 1014.5
20260505065148 12 91 0.0 0.0 0.05 0.61 0.00 100 1014.7
20260505064642 12 91 0.0 0.0 0.08 0.61 0.00 100 1014.8
20260505064142 12 91 0.0 0.0 0.08 0.61 0.00 100 1014.5
20260505063645 12 91 0.0 0.0 0.08 0.61 0.00 100 1014.3
20260505063142 12 91 0.0 1.6 0.08 0.61 0.00 100 1014.1
20260505062642 12 91 0.0 0.0 0.08 0.58 0.00 100 1014.5
20260505062145 12 91 0.0 0.0 0.08 0.58 0.00 100 1014.5
20260505061651 12 90 0.0 0.0 0.08 0.58 0.00 100 1015.1
20260505061142 12 90 0.0 0.0 0.08 0.58 0.00 100 1014.9
20260505060645 12 90 0.0 0.0 0.08 0.56 0.00 100 1015.0
20260505060148 12 91 0.0 0.0 0.08 0.56 0.00 100 1014.8
20260505055649 12 91 0.0 0.0 0.08 0.56 0.00 100 1014.9
20260505055148 12 91 0.0 0.0 0.08 0.56 0.00 100 1014.7
20260505054642 12 91 0.0 0.0 0.05 0.53 0.00 100 1014.6
20260505054145 12 91 0.0 0.0 0.08 0.53 0.00 100 1014.7
20260505053642 12 91 0.0 0.0 0.08 0.53 0.00 100 1014.6
20260505053148 12 91 0.0 0.0 0.08 0.53 0.00 100 1014.4
20260505052643 12 91 0.0 8.0 0.05 0.51 0.00 100 1014.5
20260505052143 12 80 1.6 8.0 0.08 0.51 0.00 100 1014.4
20260505051642 12 78 0.0 6.4 0.08 0.51 0.00 100 1014.7
20260505051142 12 76 0.0 0.0 0.08 0.51 0.00 100 1015.0
20260505050642 12 76 0.0 0.0 0.05 0.48 0.00 100 1015.1